KB0BS-13 Weather Reports


Display with metric or nautical units.
time (UTC)temp
F
wind
direction
speed
MPH
gust
MPH
rain 1hr
in
rain 24hr
in
rain mn
in
humidity
%
barometer
mb
20260509112152 41 132 0.0 2.0 0.00 0.00 0.00 79 998.8
20260509111650 41 107 3.0 4.0 0.00 0.00 0.00 80 998.7
20260509111146 41 114 4.0 4.0 0.00 0.00 0.00 79 998.6
20260509110643 41 97 6.0 7.0 0.00 0.00 0.00 77 998.7
20260509110140 41 147 1.0 2.0 0.00 0.00 0.00 83 998.8
20260509105638 40 133 1.0 3.0 0.00 0.00 0.00 80 999.1
20260509105136 39 114 1.0 3.0 0.00 0.00 0.00 83 999.0
20260509104633 39 102 4.0 6.0 0.00 0.00 0.00 79 999.0
20260509104129 40 97 4.0 6.0 0.00 0.00 0.00 79 999.0
20260509103627 40 92 5.0 6.0 0.00 0.00 0.00 78 999.0
20260509103125 40 99 4.0 7.0 0.00 0.00 0.00 78 999.0
20260509102622 40 150 3.0 7.0 0.00 0.00 0.00 78 998.9
20260509102119 39 88 5.0 6.0 0.00 0.00 0.00 79 999.1
20260509101615 39 24 3.0 3.0 0.00 0.00 0.00 82 999.4
20260509101112 39 59 3.0 3.0 0.00 0.00 0.00 80 999.6
20260509100609 38 81 3.0 3.0 0.00 0.00 0.00 80 999.8
20260509100107 39 69 3.0 3.0 0.00 0.00 0.00 81 999.6
20260509095603 40 65 2.0 4.0 0.00 0.00 0.00 77 999.8
20260509095101 39 96 2.0 4.0 0.00 0.00 0.00 79 1000.0
20260509094556 39 103 4.0 4.0 0.00 0.00 0.00 80 999.6
20260509094054 40 101 4.0 6.0 0.00 0.00 0.00 78 999.9
20260509093552 40 92 2.0 3.0 0.00 0.00 0.00 77 1000.1
20260509093049 40 87 2.0 3.0 0.00 0.00 0.00 76 1000.3
20260509092547 41 77 5.0 7.0 0.00 0.00 0.00 74 1000.3
20260509092046 41 77 3.0 4.0 0.00 0.00 0.00 74 1000.4
20260509091543 41 90 4.0 4.0 0.00 0.00 0.00 73 1000.0
20260509091039 42 100 4.0 6.0 0.00 0.00 0.00 72 1000.3
20260509090537 42 87 4.0 6.0 0.00 0.00 0.00 72 1000.4
20260509090035 42 87 6.0 7.0 0.00 0.00 0.00 71 1000.4
20260509085531 42 90 4.0 6.0 0.00 0.00 0.00 72 1000.5
20260509085027 42 86 4.0 6.0 0.00 0.00 0.00 71 1000.5
20260509084524 42 89 4.0 6.0 0.00 0.00 0.00 71 1000.5
20260509084022 42 103 6.0 7.0 0.00 0.00 0.00 72 1000.5
20260509083519 42 109 6.0 7.0 0.00 0.00 0.00 72 1000.6
20260509083015 43 103 7.0 8.0 0.00 0.00 0.00 69 1000.8
20260509082513 42 99 6.0 8.0 0.00 0.00 0.00 69 1001.0
20260509082010 42 93 7.0 9.0 0.00 0.00 0.00 70 1001.1
20260509081507 42 85 8.0 9.0 0.00 0.00 0.00 71 1001.1
20260509081004 41 79 6.0 8.0 0.00 0.00 0.00 73 1001.2
20260509080502 41 76 9.0 9.0 0.00 0.00 0.00 73 1001.1
20260509080000 41 77 8.0 8.0 0.00 0.00 0.00 73 1001.3
20260509075457 41 72 7.0 8.0 0.00 0.00 0.00 74 1001.4
20260509074954 40 47 3.0 4.0 0.00 0.00 0.00 76 1001.5
20260509074452 40 77 6.0 8.0 0.00 0.00 0.00 75 1001.7
20260509073948 40 75 8.0 8.0 0.00 0.00 0.00 75 1001.7
20260509073444 40 81 7.0 8.0 0.00 0.00 0.00 76 1001.7
20260509072941 39 63 6.0 8.0 0.00 0.00 0.00 77 1001.8
20260509072438 39 80 6.0 8.0 0.00 0.00 0.00 78 1002.0
20260509071935 39 69 7.0 9.0 0.00 0.00 0.00 78 1002.0
20260509071431 39 75 8.0 9.0 0.00 0.00 0.00 77 1002.0
20260509070929 40 84 7.0 8.0 0.00 0.00 0.00 76 1002.2
20260509070426 39 84 6.0 8.0 0.00 0.00 0.00 77 1002.2
20260509065921 40 94 6.0 8.0 0.00 0.00 0.00 75 1002.4
20260509065417 41 89 6.0 8.0 0.00 0.00 0.00 75 1002.4
20260509064914 41 84 7.0 8.0 0.00 0.00 0.00 74 1002.5
20260509064411 40 88 7.0 9.0 0.00 0.00 0.00 77 1002.8
20260509063909 41 85 8.0 9.0 0.00 0.00 0.00 77 1002.6
20260509063404 41 84 9.0 10.0 0.00 0.00 0.00 75 1002.8
20260509062902 40 81 9.0 9.0 0.00 0.00 0.00 76 1002.8
20260509062359 41 87 8.0 10.0 0.00 0.00 0.00 76 1002.9
20260509061856 41 72 8.0 9.0 0.00 0.00 0.00 76 1002.9
20260509061354 40 79 7.0 9.0 0.00 0.00 0.00 78 1003.1
20260509060850 41 78 9.0 9.0 0.00 0.00 0.00 77 1003.2
20260509060348 41 78 7.0 8.0 0.00 0.00 0.00 77 1003.5
20260509055843 41 70 7.0 9.0 0.00 0.00 0.00 76 1003.4
20260509055339 41 67 6.0 7.0 0.00 0.00 0.00 75 1003.8
20260509054836 41 68 5.0 7.0 0.00 0.00 0.00 75 1003.6
20260509054332 41 57 5.0 7.0 0.00 0.00 0.00 75 1003.9
20260509053831 40 68 3.0 6.0 0.00 0.00 0.00 77 1003.8
20260509053328 40 66 4.0 4.0 0.00 0.00 0.00 77 1004.0
20260509052826 41 70 2.0 3.0 0.00 0.00 0.00 75 1004.1
20260509052323 41 87 3.0 4.0 0.00 0.00 0.00 74 1004.2
20260509051821 41 94 4.0 6.0 0.00 0.00 0.00 76 1004.3
20260509051319 41 111 6.0 8.0 0.00 0.00 0.00 74 1004.4
20260509050815 41 108 6.0 7.0 0.00 0.00 0.00 74 1004.4
20260509050312 41 107 5.0 7.0 0.00 0.00 0.00 76 1004.6
20260509045809 41 96 4.0 6.0 0.00 0.00 0.00 76 1004.7
20260509045306 41 96 4.0 6.0 0.00 0.00 0.00 75 1004.8
20260509044803 42 97 4.0 6.0 0.00 0.00 0.00 75 1004.7
20260509044301 42 104 4.0 6.0 0.00 0.00 0.00 75 1004.9
20260509043757 41 89 4.0 4.0 0.00 0.00 0.00 76 1005.2
20260509043253 40 83 4.0 4.0 0.00 0.00 0.00 78 1005.0
20260509042749 41 64 2.0 3.0 0.00 0.00 0.00 80 1005.3
20260509042245 41 64 2.0 3.0 0.00 0.00 0.00 79 1005.2
20260509041742 41 60 2.0 2.0 0.00 0.00 0.00 80 1005.2
20260509041239 41 73 2.0 3.0 0.00 0.00 0.00 79 1005.5
20260509040738 41 82 3.0 3.0 0.00 0.00 0.00 76 1005.6
20260509040234 41 80 3.0 3.0 0.00 0.00 0.00 78 1005.6
20260509035731 40 74 2.0 2.0 0.00 0.00 0.00 78 1005.6
20260509035228 40 74 1.0 2.0 0.00 0.00 0.00 77 1005.6
20260509034725 40 74 0.0 0.0 0.00 0.00 0.00 78 1005.6
20260509034223 40 74 0.0 3.0 0.00 0.00 0.00 78 1005.6
20260509033719 40 333 0.0 1.0 0.00 0.00 0.00 83 1005.6
20260509033217 40 333 0.0 0.0 0.00 0.00 0.00 83 1005.7
20260509032714 40 333 0.0 1.0 0.00 0.00 0.00 80 1005.8
20260509032210 40 333 1.0 1.0 0.00 0.00 0.00 79 1006.0
20260509031708 41 333 0.0 0.0 0.00 0.00 0.00 79 1005.8
20260509031205 41 333 0.0 1.0 0.00 0.00 0.00 78 1005.8
20260509030703 40 339 1.0 2.0 0.00 0.00 0.00 79 1006.0
20260509030200 39 161 0.0 0.0 0.00 0.00 0.00 84 1005.8
20260509025656 39 161 0.0 0.0 0.00 0.00 0.00 84 1005.8
20260509025153 39 161 0.0 1.0 0.00 0.00 0.00 82 1006.2
20260509024648 39 161 0.0 0.0 0.00 0.00 0.00 81 1005.8
20260509024144 39 161 0.0 0.0 0.00 0.00 0.00 83 1006.2
20260509023642 40 161 0.0 0.0 0.00 0.00 0.00 83 1006.0
20260509023139 41 161 0.0 1.0 0.00 0.00 0.00 77 1006.0
20260509022635 41 161 0.0 0.0 0.00 0.00 0.00 72 1005.9
20260509022133 41 161 0.0 0.0 0.00 0.00 0.00 74 1006.2
20260509021629 40 161 0.0 1.0 0.00 0.00 0.00 74 1006.0
20260509021127 41 162 1.0 2.0 0.00 0.00 0.00 74 1005.8
20260509020625 40 107 1.0 2.0 0.00 0.00 0.00 72 1005.9
20260509020121 42 105 1.0 1.0 0.00 0.00 0.00 71 1005.8
20260509015621 40 97 2.0 2.0 0.00 0.00 0.00 68 1005.8
20260509015117 40 112 2.0 2.0 0.00 0.00 0.00 75 1005.9
20260509014614 41 164 1.0 2.0 0.00 0.00 0.00 72 1005.8
20260509014110 42 175 0.0 0.0 0.00 0.00 0.00 68 1005.9
20260509013608 43 176 0.0 1.0 0.00 0.00 0.00 67 1006.0
20260509013103 44 175 1.0 1.0 0.00 0.00 0.00 68 1005.7
20260509012600 45 175 2.0 2.0 0.00 0.00 0.00 64 1005.7
20260509012057 43 233 0.0 0.0 0.00 0.00 0.00 63 1005.7
20260509011555 44 235 0.0 0.0 0.00 0.00 0.00 63 1005.8
20260509011051 45 235 0.0 0.0 0.00 0.00 0.00 65 1005.7
20260509010549 47 235 0.0 0.0 0.00 0.00 0.00 65 1005.8
20260509010046 48 235 0.0 0.0 0.00 0.00 0.00 51 1005.7
20260509005544 49 82 0.0 0.0 0.00 0.00 0.00 51 1005.8
20260509005044 49 60 1.0 1.0 0.00 0.00 0.00 50 1005.6
20260509004541 49 99 1.0 2.0 0.00 0.00 0.00 49 1005.6
20260509004038 50 239 1.0 2.0 0.00 0.00 0.00 49 1005.9
20260509003536 50 237 1.0 3.0 0.00 0.00 0.00 49 1005.7
20260509003033 51 237 2.0 3.0 0.00 0.00 0.00 49 1005.8
20260509002531 51 194 3.0 3.0 0.00 0.00 0.00 48 1005.8
20260509002028 51 233 5.0 7.0 0.00 0.00 0.00 48 1005.8
20260509001525 52 223 0.0 3.0 0.00 0.00 0.00 49 1005.6
20260509001021 53 221 5.0 7.0 0.00 0.00 0.00 47 1005.7
20260509000520 53 230 5.0 7.0 0.00 0.00 0.00 46 1005.9
20260509000015 53 227 4.0 9.0 0.00 0.00 0.00 45 1006.0
20260508235513 53 226 4.0 9.0 0.00 0.00 0.00 44 1005.8
20260508235009 53 240 6.0 8.0 0.00 0.00 0.00 42 1005.9
20260508234506 53 234 7.0 8.0 0.00 0.00 0.00 42 1006.0
20260508234003 53 262 5.0 7.0 0.00 0.00 0.00 43 1006.0
20260508233503 53 222 8.0 9.0 0.00 0.00 0.00 41 1005.9
20260508232959 53 244 8.0 9.0 0.00 0.00 0.00 41 1005.8
20260508232456 54 207 6.0 10.0 0.00 0.00 0.00 40 1005.9
20260508231953 55 177 6.0 8.0 0.00 0.00 0.00 40 1005.9
20260508231451 55 259 4.0 9.0 0.00 0.00 0.00 39 1006.0
20260508230948 55 266 6.0 9.0 0.00 0.00 0.00 40 1006.2
20260508230444 55 242 10.0 11.0 0.00 0.00 0.00 40 1006.2
20260508225941 55 218 7.0 10.0 0.00 0.00 0.00 40 1006.0
20260508225438 55 250 8.0 10.0 0.00 0.00 0.00 40 1006.2
20260508224935 56 235 9.0 11.0 0.00 0.00 0.00 38 1005.9
20260508224433 55 192 5.0 8.0 0.00 0.00 0.00 40 1005.9
20260508223930 56 231 8.0 9.0 0.00 0.00 0.00 39 1006.0
20260508223428 55 226 4.0 7.0 0.00 0.00 0.00 38 1006.2
20260508222925 56 257 7.0 10.0 0.00 0.00 0.00 39 1006.3
20260508222423 56 253 6.0 14.0 0.00 0.00 0.00 39 1006.2
20260508221919 56 204 3.0 4.0 0.00 0.00 0.00 38 1006.0
20260508221414 55 253 4.0 6.0 0.00 0.00 0.00 39 1006.4
20260508220911 55 244 8.0 13.0 0.00 0.00 0.00 41 1006.4
20260508220407 55 234 3.0 4.0 0.00 0.00 0.00 40 1006.4
20260508215904 55 251 6.0 10.0 0.00 0.00 0.00 42 1006.4
20260508215401 55 219 2.0 6.0 0.00 0.00 0.00 40 1006.3
20260508214857 54 177 2.0 2.0 0.00 0.00 0.00 40 1006.3
20260508214355 55 206 6.0 9.0 0.00 0.00 0.00 40 1006.4
20260508213851 55 283 5.0 10.0 0.00 0.00 0.00 43 1006.3
20260508213348 55 240 6.0 13.0 0.00 0.00 0.00 40 1006.4
20260508212844 54 262 7.0 8.0 0.00 0.00 0.00 40 1006.3
20260508212341 56 266 5.0 6.0 0.00 0.00 0.00 39 1006.0
20260508211836 55 259 1.0 7.0 0.00 0.00 0.00 42 1006.0
20260508211332 56 188 8.0 13.0 0.00 0.00 0.00 43 1006.0
20260508210830 56 256 8.0 10.0 0.00 0.00 0.00 40 1006.2
20260508210327 56 297 7.0 10.0 0.00 0.00 0.00 40 1006.3
20260508205818 55 186 11.0 16.0 0.00 0.00 0.00 41 1006.2
20260508205314 54 262 9.0 11.0 0.00 0.00 0.00 42 1006.4
20260508204810 54 282 6.0 7.0 0.00 0.00 0.00 42 1006.4
20260508204307 54 244 6.0 8.0 0.00 0.00 0.00 42 1006.7
20260508203804 54 198 3.0 6.0 0.00 0.00 0.00 42 1006.4
20260508203259 53 274 6.0 7.0 0.00 0.00 0.00 42 1006.5
20260508202755 54 248 6.0 7.0 0.00 0.00 0.00 42 1006.6
20260508202253 54 272 2.0 2.0 0.00 0.00 0.00 46 1006.5
20260508201750 53 284 3.0 6.0 0.00 0.00 0.00 49 1006.7
20260508201247 53 251 7.0 9.0 0.00 0.00 0.00 45 1006.8
20260508200743 54 217 4.0 6.0 0.00 0.00 0.00 44 1006.7
20260508200239 54 211 2.0 7.0 0.00 0.00 0.00 46 1006.9
20260508195736 54 271 7.0 10.0 0.00 0.00 0.00 44 1006.8
20260508195232 54 277 6.0 8.0 0.00 0.00 0.00 45 1006.9
20260508194729 53 271 4.0 6.0 0.00 0.00 0.00 47 1006.9
20260508194226 53 327 4.0 8.0 0.00 0.00 0.00 49 1007.2
20260508193723 54 246 5.0 6.0 0.00 0.00 0.00 44 1007.2
20260508193219 53 236 1.0 3.0 0.00 0.00 0.00 45 1007.0
20260508192716 54 241 8.0 13.0 0.00 0.00 0.00 44 1007.2
20260508192214 55 222 3.0 8.0 0.00 0.00 0.00 44 1007.4
20260508191711 53 290 9.0 9.0 0.00 0.00 0.00 46 1007.3
20260508191207 53 268 6.0 9.0 0.00 0.00 0.00 46 1007.3
20260508190705 53 187 2.0 3.0 0.00 0.00 0.00 45 1007.5
20260508190201 52 189 2.0 4.0 0.00 0.00 0.00 49 1007.5
20260508185658 52 251 7.0 8.0 0.00 0.00 0.00 47 1007.4
20260508185155 52 260 6.0 8.0 0.00 0.00 0.00 49 1007.5
20260508184652 52 207 4.0 4.0 0.00 0.00 0.00 48 1007.4
20260508184149 53 207 4.0 6.0 0.00 0.00 0.00 49 1007.5
20260508183646 52 269 5.0 8.0 0.00 0.00 0.00 50 1007.6
20260508183142 52 276 5.0 7.0 0.00 0.00 0.00 49 1007.6
20260508182638 52 222 2.0 6.0 0.00 0.00 0.00 48 1007.6
20260508182135 52 236 2.0 3.0 0.00 0.00 0.00 48 1007.6
20260508181630 52 260 0.0 2.0 0.00 0.00 0.00 48 1007.7
20260508181128 52 64 2.0 2.0 0.00 0.00 0.00 50 1007.9
20260508180624 51 247 2.0 4.0 0.00 0.00 0.00 49 1008.0
20260508180121 51 261 5.0 8.0 0.00 0.00 0.00 50 1008.0
20260508175618 51 298 2.0 6.0 0.00 0.00 0.00 48 1007.9
20260508175115 51 294 0.0 3.0 0.00 0.00 0.00 49 1008.1
20260508174612 51 276 1.0 3.0 0.00 0.00 0.00 47 1008.1
20260508174109 51 286 4.0 9.0 0.00 0.00 0.00 46 1008.2
20260508173606 50 324 6.0 9.0 0.00 0.00 0.00 49 1008.4
20260508173102 50 277 5.0 7.0 0.00 0.00 0.00 49 1008.4
20260508172559 50 298 9.0 10.0 0.00 0.00 0.00 50 1008.5
20260508172056 50 268 6.0 8.0 0.00 0.00 0.00 49 1008.4
20260508171552 51 314 7.0 9.0 0.00 0.00 0.00 51 1008.4
20260508171049 50 288 3.0 6.0 0.00 0.00 0.00 48 1008.4
20260508170546 50 264 4.0 6.0 0.00 0.00 0.00 51 1008.5
20260508170043 50 250 5.0 7.0 0.00 0.00 0.00 49 1008.5
20260508165540 51 232 5.0 7.0 0.00 0.00 0.00 51 1008.9
20260508165037 50 264 5.0 10.0 0.00 0.00 0.00 51 1008.8
20260508164534 50 249 6.0 9.0 0.00 0.00 0.00 52 1008.8
20260508164031 50 260 5.0 9.0 0.00 0.00 0.00 50 1008.9
20260508163528 51 284 3.0 8.0 0.00 0.00 0.00 47 1008.8
20260508163024 50 262 6.0 8.0 0.00 0.00 0.00 49 1008.9
20260508162521 50 219 6.0 8.0 0.00 0.00 0.00 48 1008.9
20260508162019 49 268 9.0 13.0 0.00 0.00 0.00 50 1009.0
20260508161515 50 245 10.0 11.0 0.00 0.00 0.00 51 1009.0
20260508161013 49 255 6.0 11.0 0.00 0.00 0.00 50 1009.1
20260508160511 49 256 6.0 7.0 0.00 0.00 0.00 52 1009.0
20260508160008 49 285 8.0 11.0 0.00 0.00 0.00 51 1009.1
20260508155505 49 267 6.0 9.0 0.00 0.00 0.00 52 1009.2
20260508155001 49 294 6.0 8.0 0.00 0.00 0.00 53 1009.2
20260508154459 49 228 7.0 9.0 0.00 0.00 0.00 55 1009.2
20260508153955 50 240 3.0 6.0 0.00 0.00 0.00 56 1009.2
20260508153453 49 259 4.0 7.0 0.00 0.00 0.00 59 1009.2
20260508152949 50 358 3.0 3.0 0.00 0.00 0.00 58 1009.1
20260508152445 49 216 2.0 3.0 0.00 0.00 0.00 59 1009.4
20260508151942 49 253 3.0 7.0 0.00 0.00 0.00 61 1009.3
20260508151438 50 268 6.0 8.0 0.00 0.00 0.00 57 1009.5
20260508150935 49 197 4.0 9.0 0.00 0.00 0.00 58 1009.4
20260508150432 48 250 6.0 6.0 0.00 0.00 0.00 61 1009.5
20260508145927 48 247 2.0 6.0 0.00 0.00 0.00 65 1009.6
20260508145424 47 287 0.0 0.0 0.00 0.00 0.00 65 1009.5
20260508144921 48 301 0.0 0.0 0.00 0.00 0.00 67 1009.7
20260508144419 47 270 2.0 7.0 0.00 0.00 0.00 66 1009.7
20260508143916 47 279 4.0 8.0 0.00 0.00 0.00 68 1009.6
20260508143413 48 37 2.0 3.0 0.00 0.00 0.00 64 1009.7
20260508142910 46 282 0.0 1.0 0.00 0.00 0.00 68 1009.7
20260508142407 48 186 3.0 6.0 0.00 0.00 0.00 68 1009.7
20260508141903 45 14 1.0 3.0 0.00 0.00 0.00 77 1009.8
20260508141400 45 277 1.0 4.0 0.00 0.00 0.00 75 1009.8
20260508140858 46 355 2.0 6.0 0.00 0.00 0.00 77 1010.1
20260508140355 45 288 4.0 6.0 0.00 0.00 0.00 77 1009.9
20260508135850 45 350 4.0 7.0 0.00 0.00 0.00 75 1010.0
20260508135347 44 257 3.0 4.0 0.00 0.00 0.00 77 1010.0
20260508134843 44 261 4.0 6.0 0.00 0.00 0.00 78 1009.9
20260508134340 44 297 4.0 6.0 0.00 0.00 0.00 77 1009.9
20260508133836 44 288 6.0 9.0 0.00 0.00 0.00 78 1010.1
20260508133335 44 243 6.0 7.0 0.00 0.00 0.00 78 1010.3
20260508132831 43 244 2.0 6.0 0.00 0.00 0.00 80 1010.3
20260508132329 43 233 6.0 7.0 0.00 0.00 0.00 79 1010.3
20260508131825 43 243 5.0 6.0 0.00 0.00 0.00 82 1010.3
20260508131321 42 285 4.0 8.0 0.00 0.00 0.00 82 1010.3
20260508130818 42 253 3.0 4.0 0.00 0.00 0.00 84 1010.3
20260508130315 42 248 5.0 6.0 0.00 0.00 0.00 83 1010.5
20260508125811 41 228 3.0 7.0 0.00 0.00 0.00 84 1010.3
20260508125308 41 260 3.0 6.0 0.00 0.00 0.00 85 1010.4
20260508124806 41 248 3.0 6.0 0.00 0.00 0.00 86 1010.4
20260508124302 41 252 3.0 6.0 0.00 0.00 0.00 87 1010.1
20260508123800 41 203 3.0 4.0 0.00 0.00 0.00 87 1010.3
20260508123258 40 235 2.0 3.0 0.00 0.00 0.00 88 1010.4
20260508122754 40 229 4.0 4.0 0.00 0.00 0.00 89 1010.3
20260508122251 39 235 4.0 4.0 0.00 0.00 0.00 90 1010.2
20260508121749 39 240 4.0 6.0 0.00 0.00 0.00 91 1010.3
20260508121247 39 235 4.0 6.0 0.00 0.00 0.00 91 1010.4
20260508120743 39 243 1.0 4.0 0.00 0.00 0.00 91 1010.1
20260508120242 38 255 0.0 2.0 0.00 0.00 0.00 91 1010.2
20260508115739 37 272 2.0 2.0 0.00 0.00 0.00 92 1010.3
20260508115237 37 75 0.0 0.0 0.00 0.00 0.00 90 1010.3
20260508114733 36 217 0.0 0.0 0.00 0.00 0.00 92 1010.3
20260508114230 35 217 0.0 2.0 0.00 0.00 0.00 93 1010.2
20260508113726 35 217 0.0 0.0 0.00 0.00 0.00 92 1010.3
20260508113225 35 217 0.0 0.0 0.00 0.00 0.00 91 1010.3
20260508112721 36 217 0.0 0.0 0.00 0.00 0.00 91 1010.1